Year,Month,Day,Hour,Minute,Value (Times are PST for temperature in C)
2009,09,28,00,00,10.20
2009,09,28,00,01,10.30
2009,09,28,00,02,10.30
2009,09,28,00,03,10.40
2009,09,28,00,04,10.40
2009,09,28,00,05,10.50
2009,09,28,00,06,10.60
2009,09,28,00,07,10.70
2009,09,28,00,08,10.80
2009,09,28,00,09,10.90
2009,09,28,00,10,10.90
2009,09,28,00,11,11.00
2009,09,28,00,12,11.00
2009,09,28,00,13,11.10
2009,09,28,00,14,11.10
2009,09,28,00,15,11.10
2009,09,28,00,16,11.10
2009,09,28,00,17,11.20
2009,09,28,00,18,11.20
2009,09,28,00,19,11.30
2009,09,28,00,20,11.30
2009,09,28,00,21,11.40
2009,09,28,00,22,11.40
2009,09,28,00,23,11.50
2009,09,28,00,24,11.50
2009,09,28,00,25,11.60
2009,09,28,00,26,11.60
2009,09,28,00,27,11.60
2009,09,28,00,28,11.70
2009,09,28,00,29,11.70
2009,09,28,00,30,11.70
2009,09,28,00,31,11.70
2009,09,28,00,32,11.70
2009,09,28,00,33,11.60
2009,09,28,00,34,11.60
2009,09,28,00,35,11.60
2009,09,28,00,36,11.50
2009,09,28,00,37,11.50
2009,09,28,00,38,11.40
2009,09,28,00,39,11.40
2009,09,28,00,40,11.40
2009,09,28,00,41,11.30
2009,09,28,00,42,11.30
2009,09,28,00,43,11.20
2009,09,28,00,44,11.10
2009,09,28,00,45,11.10
2009,09,28,00,46,11.00
2009,09,28,00,47,10.90
2009,09,28,00,48,10.90
2009,09,28,00,49,10.80
2009,09,28,00,50,10.80
2009,09,28,00,51,10.80
2009,09,28,00,52,10.70
2009,09,28,00,53,10.70
2009,09,28,00,54,10.70
2009,09,28,00,55,10.60
2009,09,28,00,56,10.60
2009,09,28,00,57,10.60
2009,09,28,00,58,10.50
2009,09,28,00,59,10.50
2009,09,28,01,00,10.50
2009,09,28,01,01,10.50
2009,09,28,01,02,10.50
2009,09,28,01,03,10.50
2009,09,28,01,04,10.50
2009,09,28,01,05,10.50
2009,09,28,01,06,10.50
2009,09,28,01,07,10.40
2009,09,28,01,08,10.40
2009,09,28,01,09,10.40
2009,09,28,01,10,10.40
2009,09,28,01,11,10.40
2009,09,28,01,12,10.30
2009,09,28,01,13,10.30
2009,09,28,01,14,10.20
2009,09,28,01,15,10.20
2009,09,28,01,16,10.10
2009,09,28,01,17,10.10
2009,09,28,01,18,10.00
2009,09,28,01,19,9.90
2009,09,28,01,20,9.90
2009,09,28,01,21,9.90
2009,09,28,01,22,9.90
2009,09,28,01,23,10.00
2009,09,28,01,24,10.00
2009,09,28,01,25,10.10
2009,09,28,01,26,10.10
2009,09,28,01,27,10.10
2009,09,28,01,28,10.10
2009,09,28,01,29,10.10
2009,09,28,01,30,10.10
2009,09,28,01,31,10.00
2009,09,28,01,32,10.00
2009,09,28,01,33,9.90
2009,09,28,01,34,9.90
2009,09,28,01,35,9.80
2009,09,28,01,36,9.80
2009,09,28,01,37,9.80
2009,09,28,01,38,9.70
2009,09,28,01,39,9.60
2009,09,28,01,40,9.60
2009,09,28,01,41,9.50
2009,09,28,01,42,9.50
2009,09,28,01,43,9.40
2009,09,28,01,44,9.40
2009,09,28,01,45,9.30
2009,09,28,01,46,9.30
2009,09,28,01,47,9.20
2009,09,28,01,48,9.20
2009,09,28,01,49,9.20
2009,09,28,01,50,9.20
2009,09,28,01,51,9.20
2009,09,28,01,52,9.10
2009,09,28,01,53,9.10
2009,09,28,01,54,9.10
2009,09,28,01,55,9.10
2009,09,28,01,56,9.20
2009,09,28,01,57,9.20
2009,09,28,01,58,9.30
2009,09,28,01,59,9.30
2009,09,28,02,00,9.40
2009,09,28,02,01,9.50
2009,09,28,02,02,9.60
2009,09,28,02,03,9.60
2009,09,28,02,04,9.60
2009,09,28,02,05,9.50
2009,09,28,02,06,9.50
2009,09,28,02,07,9.50
2009,09,28,02,08,9.50
2009,09,28,02,09,9.50
2009,09,28,02,10,9.50
2009,09,28,02,11,9.40
2009,09,28,02,12,9.40
2009,09,28,02,13,9.40
2009,09,28,02,14,9.30
2009,09,28,02,15,9.30
2009,09,28,02,16,9.20
2009,09,28,02,17,9.20
2009,09,28,02,18,9.20
2009,09,28,02,19,9.20
2009,09,28,02,20,9.20
2009,09,28,02,21,9.20
2009,09,28,02,22,9.10
2009,09,28,02,23,9.10
2009,09,28,02,24,9.00
2009,09,28,02,25,8.90
2009,09,28,02,26,8.90
2009,09,28,02,27,8.80
2009,09,28,02,28,8.70
2009,09,28,02,29,8.70
2009,09,28,02,30,8.60
2009,09,28,02,31,8.60
2009,09,28,02,32,8.50
2009,09,28,02,33,8.40
2009,09,28,02,34,8.30
2009,09,28,02,35,8.20
2009,09,28,02,36,8.20
2009,09,28,02,37,8.00
2009,09,28,02,38,8.00
2009,09,28,02,39,7.90
2009,09,28,02,40,7.80
2009,09,28,02,41,7.80
2009,09,28,02,42,7.80
2009,09,28,02,43,7.70
2009,09,28,02,44,7.70
2009,09,28,02,45,7.70
2009,09,28,02,46,7.60
2009,09,28,02,47,7.60
2009,09,28,02,48,7.60
2009,09,28,02,49,7.60
2009,09,28,02,50,7.60
2009,09,28,02,51,7.50
2009,09,28,02,52,7.50
2009,09,28,02,53,7.50
2009,09,28,02,54,7.50
2009,09,28,02,55,7.40
2009,09,28,02,56,7.40
2009,09,28,02,57,7.40
2009,09,28,02,58,7.50
2009,09,28,02,59,7.50
2009,09,28,03,00,7.50
2009,09,28,03,01,7.60
2009,09,28,03,02,7.60
2009,09,28,03,03,7.60
2009,09,28,03,04,7.60
2009,09,28,03,05,7.60
2009,09,28,03,06,7.60
2009,09,28,03,07,7.60
2009,09,28,03,08,7.70
2009,09,28,03,09,7.70
2009,09,28,03,10,7.80
2009,09,28,03,11,7.80
2009,09,28,03,12,7.90
2009,09,28,03,13,7.90
2009,09,28,03,14,8.00
2009,09,28,03,15,8.10
2009,09,28,03,16,8.10
2009,09,28,03,17,8.10
2009,09,28,03,18,8.10
2009,09,28,03,19,8.10
2009,09,28,03,20,8.10
2009,09,28,03,21,8.10
2009,09,28,03,22,8.10
2009,09,28,03,23,8.10
2009,09,28,03,24,8.10
2009,09,28,03,25,8.10
2009,09,28,03,26,8.10
2009,09,28,03,27,8.10
2009,09,28,03,28,8.20
2009,09,28,03,29,8.20
2009,09,28,03,30,8.20
2009,09,28,03,31,8.20
2009,09,28,03,32,8.20
2009,09,28,03,33,8.10
2009,09,28,03,34,8.10
2009,09,28,03,35,8.10
2009,09,28,03,36,8.10
2009,09,28,03,37,8.10
2009,09,28,03,38,8.10
2009,09,28,03,39,8.10
2009,09,28,03,40,8.20
2009,09,28,03,41,8.20
2009,09,28,03,42,8.20
2009,09,28,03,43,8.20
2009,09,28,03,44,8.20
2009,09,28,03,45,8.20
2009,09,28,03,46,8.20
2009,09,28,03,47,8.30
2009,09,28,03,48,8.30
2009,09,28,03,49,8.40
2009,09,28,03,50,8.40
2009,09,28,03,51,8.40
2009,09,28,03,52,8.50
2009,09,28,03,53,8.50
2009,09,28,03,54,8.50
2009,09,28,03,55,8.50
2009,09,28,03,56,8.50
2009,09,28,03,57,8.60
2009,09,28,03,58,8.50
2009,09,28,03,59,8.60
2009,09,28,04,00,8.60
2009,09,28,04,01,8.50
2009,09,28,04,02,8.50
2009,09,28,04,03,8.60
2009,09,28,04,04,8.60
2009,09,28,04,05,8.60
2009,09,28,04,06,8.60
2009,09,28,04,07,8.60
2009,09,28,04,08,8.50
2009,09,28,04,09,8.50
2009,09,28,04,10,8.50
2009,09,28,04,11,8.50
2009,09,28,04,12,8.60
2009,09,28,04,13,8.60
2009,09,28,04,14,8.70
2009,09,28,04,15,8.80
2009,09,28,04,16,8.90
2009,09,28,04,17,9.00
2009,09,28,04,18,9.20
2009,09,28,04,19,9.30
2009,09,28,04,20,9.40
2009,09,28,04,21,9.40
2009,09,28,04,22,9.60
2009,09,28,04,23,9.60
2009,09,28,04,24,9.70
2009,09,28,04,25,9.80
2009,09,28,04,26,9.80
2009,09,28,04,27,9.90
2009,09,28,04,28,10.00
2009,09,28,04,29,10.00
2009,09,28,04,30,10.10
2009,09,28,04,31,10.10
2009,09,28,04,32,10.10
2009,09,28,04,33,10.10
2009,09,28,04,34,10.10
2009,09,28,04,35,10.10
2009,09,28,04,36,10.10
2009,09,28,04,37,10.10
2009,09,28,04,38,10.00
2009,09,28,04,39,10.00
2009,09,28,04,40,9.90
2009,09,28,04,41,9.90
2009,09,28,04,42,9.80
2009,09,28,04,43,9.80
2009,09,28,04,44,9.80
2009,09,28,04,45,9.80
2009,09,28,04,46,9.70
2009,09,28,04,47,9.70
2009,09,28,04,48,9.70
2009,09,28,04,49,9.70
2009,09,28,04,50,9.70
2009,09,28,04,51,9.70
2009,09,28,04,52,9.70
2009,09,28,04,53,9.70
2009,09,28,04,54,9.80
2009,09,28,04,55,9.80
2009,09,28,04,56,9.90
2009,09,28,04,57,10.00
2009,09,28,04,58,10.00
2009,09,28,04,59,10.00
2009,09,28,05,00,9.90
2009,09,28,05,01,9.70
2009,09,28,05,02,9.50
2009,09,28,05,03,9.30
2009,09,28,05,04,9.10
2009,09,28,05,05,9.00
2009,09,28,05,06,8.80
2009,09,28,05,07,8.80
2009,09,28,05,08,8.70
2009,09,28,05,09,8.60
2009,09,28,05,10,8.50
2009,09,28,05,11,8.40
2009,09,28,05,12,8.30
2009,09,28,05,13,8.20
2009,09,28,05,14,8.10
2009,09,28,05,15,8.00
2009,09,28,05,16,8.00
2009,09,28,05,17,7.90
2009,09,28,05,18,7.90
2009,09,28,05,19,7.80
2009,09,28,05,20,7.80
2009,09,28,05,21,7.80
2009,09,28,05,22,7.80
2009,09,28,05,23,7.90
2009,09,28,05,24,8.00
2009,09,28,05,25,8.10
2009,09,28,05,26,8.20
2009,09,28,05,27,8.30
2009,09,28,05,28,8.40
2009,09,28,05,29,8.50
2009,09,28,05,30,8.60
2009,09,28,05,31,8.60
2009,09,28,05,32,8.60
2009,09,28,05,33,8.60
2009,09,28,05,34,8.50
2009,09,28,05,35,8.40
2009,09,28,05,36,8.30
2009,09,28,05,37,8.20
2009,09,28,05,38,8.10
2009,09,28,05,39,7.90
2009,09,28,05,40,7.80
2009,09,28,05,41,7.80
2009,09,28,05,42,7.70
2009,09,28,05,43,7.60
2009,09,28,05,44,7.50
2009,09,28,05,45,7.50
2009,09,28,05,46,7.40
2009,09,28,05,47,7.30
2009,09,28,05,48,7.20
2009,09,28,05,49,7.20
2009,09,28,05,50,7.10
2009,09,28,05,51,7.10
2009,09,28,05,52,7.00
2009,09,28,05,53,7.00
2009,09,28,05,54,6.90
2009,09,28,05,55,6.90
2009,09,28,05,56,6.90
2009,09,28,05,57,6.80
2009,09,28,05,58,6.80
2009,09,28,05,59,6.80
2009,09,28,06,00,6.80
2009,09,28,06,01,6.80
2009,09,28,06,02,6.80
2009,09,28,06,03,6.80
2009,09,28,06,04,6.80
2009,09,28,06,05,6.80
2009,09,28,06,06,6.80
2009,09,28,06,07,6.80
2009,09,28,06,08,6.80
2009,09,28,06,09,6.80
2009,09,28,06,10,6.80
2009,09,28,06,11,6.90
2009,09,28,06,12,6.90
2009,09,28,06,13,6.90
2009,09,28,06,14,7.00
2009,09,28,06,15,7.00
2009,09,28,06,16,7.10
2009,09,28,06,17,7.10
2009,09,28,06,18,7.10
2009,09,28,06,19,7.10
2009,09,28,06,20,7.10
2009,09,28,06,21,7.10
2009,09,28,06,22,7.10
2009,09,28,06,23,7.10
2009,09,28,06,24,7.10
2009,09,28,06,25,7.10
2009,09,28,06,26,7.20
2009,09,28,06,27,7.20
2009,09,28,06,28,7.20
2009,09,28,06,29,7.20
2009,09,28,06,30,7.20
2009,09,28,06,31,7.20
2009,09,28,06,32,7.20
2009,09,28,06,33,7.20
2009,09,28,06,34,7.20
2009,09,28,06,35,7.20
2009,09,28,06,36,7.20
2009,09,28,06,37,7.20
2009,09,28,06,38,7.20
2009,09,28,06,39,7.20
2009,09,28,06,40,7.20
2009,09,28,06,41,7.20
2009,09,28,06,42,7.20
2009,09,28,06,43,7.20
2009,09,28,06,44,7.20
2009,09,28,06,45,7.20
2009,09,28,06,46,7.20
2009,09,28,06,47,7.10
2009,09,28,06,48,7.00
2009,09,28,06,49,6.90
2009,09,28,06,50,6.80
2009,09,28,06,51,6.70
2009,09,28,06,52,6.70
2009,09,28,06,53,6.60
2009,09,28,06,54,6.60
2009,09,28,06,55,6.50
2009,09,28,06,56,6.50
2009,09,28,06,57,6.50
2009,09,28,06,58,6.50
2009,09,28,06,59,6.60
2009,09,28,07,00,6.60
2009,09,28,07,01,6.70
2009,09,28,07,02,6.70
2009,09,28,07,03,6.70
2009,09,28,07,04,6.80
2009,09,28,07,05,6.80
2009,09,28,07,06,6.80
2009,09,28,07,07,6.80
2009,09,28,07,08,6.80
2009,09,28,07,09,6.90
2009,09,28,07,10,6.90
2009,09,28,07,11,6.90
2009,09,28,07,12,7.00
2009,09,28,07,13,7.10
2009,09,28,07,14,7.10
2009,09,28,07,15,7.20
2009,09,28,07,16,7.20
2009,09,28,07,17,7.20
2009,09,28,07,18,7.20
2009,09,28,07,19,7.30
2009,09,28,07,20,7.30
2009,09,28,07,21,7.40
2009,09,28,07,22,7.40
2009,09,28,07,23,7.50
2009,09,28,07,24,7.50
2009,09,28,07,25,7.60
2009,09,28,07,26,7.60
2009,09,28,07,27,7.70
2009,09,28,07,28,7.70
2009,09,28,07,29,7.80
2009,09,28,07,30,7.80
2009,09,28,07,31,7.80
2009,09,28,07,32,7.90
2009,09,28,07,33,7.90
2009,09,28,07,34,8.00
2009,09,28,07,35,8.10
2009,09,28,07,36,8.10
2009,09,28,07,37,8.10
2009,09,28,07,38,8.20
2009,09,28,07,39,8.20
2009,09,28,07,40,8.20
2009,09,28,07,41,8.30
2009,09,28,07,42,8.30
2009,09,28,07,43,8.40
2009,09,28,07,44,8.40
2009,09,28,07,45,8.50
2009,09,28,07,46,8.60
2009,09,28,07,47,8.60
2009,09,28,07,48,8.60
2009,09,28,07,49,8.70
2009,09,28,07,50,8.70
2009,09,28,07,51,8.70
2009,09,28,07,52,8.70
2009,09,28,07,53,8.80
2009,09,28,07,54,8.80
2009,09,28,07,55,8.80
2009,09,28,07,56,8.90
2009,09,28,07,57,8.90
2009,09,28,07,58,8.90
2009,09,28,07,59,9.00
2009,09,28,08,00,9.00
2009,09,28,08,01,9.00
2009,09,28,08,02,9.10
2009,09,28,08,03,9.10
2009,09,28,08,04,9.10
2009,09,28,08,05,9.20
2009,09,28,08,06,9.20
2009,09,28,08,07,9.20
2009,09,28,08,08,9.30
2009,09,28,08,09,9.30
2009,09,28,08,10,9.40
2009,09,28,08,11,9.40
2009,09,28,08,12,9.50
2009,09,28,08,13,9.60
2009,09,28,08,14,9.60
2009,09,28,08,15,9.60
2009,09,28,08,16,9.60
2009,09,28,08,17,9.70
2009,09,28,08,18,9.70
2009,09,28,08,19,9.70
2009,09,28,08,20,9.80
2009,09,28,08,21,9.80
2009,09,28,08,22,9.90
2009,09,28,08,23,10.00
2009,09,28,08,24,10.00
2009,09,28,08,25,10.10
2009,09,28,08,26,10.20
2009,09,28,08,27,10.20
2009,09,28,08,28,10.30
2009,09,28,08,29,10.30
2009,09,28,08,30,10.30
2009,09,28,08,31,10.40
2009,09,28,08,32,10.40
2009,09,28,08,33,10.50
2009,09,28,08,34,10.50
2009,09,28,08,35,10.60
2009,09,28,08,36,10.60
2009,09,28,08,37,10.70
2009,09,28,08,38,10.80
2009,09,28,08,39,10.90
2009,09,28,08,40,11.00
2009,09,28,08,41,11.00
2009,09,28,08,42,11.10
2009,09,28,08,43,11.10
2009,09,28,08,44,11.20
2009,09,28,08,45,11.20
2009,09,28,08,46,11.10
2009,09,28,08,47,11.00
2009,09,28,08,48,11.00
2009,09,28,08,49,10.90
2009,09,28,08,50,10.80
2009,09,28,08,51,10.80
2009,09,28,08,52,10.80
2009,09,28,08,53,10.70
2009,09,28,08,54,10.70
2009,09,28,08,55,10.80
2009,09,28,08,56,10.70
2009,09,28,08,57,10.70
2009,09,28,08,58,10.70
2009,09,28,08,59,10.70
2009,09,28,09,00,10.70
2009,09,28,09,01,10.60
2009,09,28,09,02,10.60
2009,09,28,09,03,10.60
2009,09,28,09,04,10.50
2009,09,28,09,05,10.50
2009,09,28,09,06,10.40
2009,09,28,09,07,10.40
2009,09,28,09,08,10.40
2009,09,28,09,09,10.40
2009,09,28,09,10,10.40
2009,09,28,09,11,10.40
2009,09,28,09,12,10.50
2009,09,28,09,13,10.60
2009,09,28,09,14,10.70
2009,09,28,09,15,10.70
2009,09,28,09,16,10.80
2009,09,28,09,17,10.90
2009,09,28,09,18,11.00
2009,09,28,09,19,11.10
2009,09,28,09,20,11.20
2009,09,28,09,21,11.30
2009,09,28,09,22,11.30
2009,09,28,09,23,11.40
2009,09,28,09,24,11.50
2009,09,28,09,25,11.60
2009,09,28,09,26,11.70
2009,09,28,09,27,11.70
2009,09,28,09,28,11.80
2009,09,28,09,29,11.80
2009,09,28,09,30,11.90
2009,09,28,09,31,11.90
2009,09,28,09,32,12.00
2009,09,28,09,33,12.10
2009,09,28,09,34,12.10
2009,09,28,09,35,12.10
2009,09,28,09,36,12.10
2009,09,28,09,37,12.10
2009,09,28,09,38,12.20
2009,09,28,09,39,12.20
2009,09,28,09,40,12.20
2009,09,28,09,41,12.20
2009,09,28,09,42,12.20
2009,09,28,09,43,12.10
2009,09,28,09,44,12.10
2009,09,28,09,45,12.10
2009,09,28,09,46,12.10
2009,09,28,09,47,12.10
2009,09,28,09,48,12.10
2009,09,28,09,49,12.10
2009,09,28,09,50,12.10
2009,09,28,09,51,12.10
2009,09,28,09,52,12.10
2009,09,28,09,53,12.10
2009,09,28,09,54,12.10
2009,09,28,09,55,12.10
2009,09,28,09,56,12.10
2009,09,28,09,57,12.20
2009,09,28,09,58,12.30
2009,09,28,09,59,12.30
2009,09,28,10,00,12.30
2009,09,28,10,01,12.30
2009,09,28,10,02,12.40
2009,09,28,10,03,12.50
2009,09,28,10,04,12.50
2009,09,28,10,05,12.60
2009,09,28,10,06,12.60
2009,09,28,10,07,12.60
2009,09,28,10,08,12.60
2009,09,28,10,09,12.70
2009,09,28,10,10,12.70
2009,09,28,10,11,12.70
2009,09,28,10,12,12.70
2009,09,28,10,13,12.80
2009,09,28,10,14,12.90
2009,09,28,10,15,13.10
2009,09,28,10,16,13.20
2009,09,28,10,17,13.30
2009,09,28,10,18,13.50
2009,09,28,10,19,13.70
2009,09,28,10,20,13.80
2009,09,28,10,21,14.00
2009,09,28,10,22,14.20
2009,09,28,10,23,14.30
2009,09,28,10,24,14.50
2009,09,28,10,25,14.60
2009,09,28,10,26,14.80
2009,09,28,10,27,15.00
2009,09,28,10,28,15.00
2009,09,28,10,29,15.00
2009,09,28,10,30,15.00
2009,09,28,10,31,15.10
2009,09,28,10,32,15.20
2009,09,28,10,33,15.30
2009,09,28,10,34,15.40
2009,09,28,10,35,15.40
2009,09,28,10,36,15.40
2009,09,28,10,37,15.40
2009,09,28,10,38,15.40
2009,09,28,10,39,15.40
2009,09,28,10,40,15.40
2009,09,28,10,41,15.30
2009,09,28,10,42,15.30
2009,09,28,10,43,15.20
2009,09,28,10,44,15.20
2009,09,28,10,45,15.10
2009,09,28,10,46,15.00
2009,09,28,10,47,15.00
2009,09,28,10,48,15.00
2009,09,28,10,49,15.00
2009,09,28,10,50,15.00
2009,09,28,10,51,15.00
2009,09,28,10,52,14.90
2009,09,28,10,53,15.00
2009,09,28,10,54,15.00
2009,09,28,10,55,15.00
2009,09,28,10,56,15.00
2009,09,28,10,57,15.00
2009,09,28,10,58,15.00
2009,09,28,10,59,15.00
2009,09,28,11,00,15.00
2009,09,28,11,01,15.00
2009,09,28,11,02,15.00
2009,09,28,11,03,15.00
2009,09,28,11,04,15.00
2009,09,28,11,05,15.00
2009,09,28,11,06,15.00
2009,09,28,11,07,15.00
2009,09,28,11,08,15.00
2009,09,28,11,09,14.90
2009,09,28,11,10,14.80
2009,09,28,11,11,14.80
2009,09,28,11,12,14.80
2009,09,28,11,13,14.80
2009,09,28,11,14,14.80
2009,09,28,11,15,14.80
2009,09,28,11,16,14.80
2009,09,28,11,17,14.80
2009,09,28,11,18,14.90
2009,09,28,11,19,14.80
2009,09,28,11,20,14.80
2009,09,28,11,21,14.70
2009,09,28,11,22,14.70
2009,09,28,11,23,14.70
2009,09,28,11,24,14.70
2009,09,28,11,25,14.70
2009,09,28,11,26,14.60
2009,09,28,11,27,14.60
2009,09,28,11,28,14.60
2009,09,28,11,29,14.60
2009,09,28,11,30,14.60
2009,09,28,11,31,14.60
2009,09,28,11,32,14.60
2009,09,28,11,33,14.60
2009,09,28,11,34,14.60
2009,09,28,11,35,14.60
2009,09,28,11,36,14.60
2009,09,28,11,37,14.60
2009,09,28,11,38,14.60
2009,09,28,11,39,14.60
2009,09,28,11,40,14.60
2009,09,28,11,41,14.60
2009,09,28,11,42,14.50
2009,09,28,11,43,14.50
2009,09,28,11,44,14.50
2009,09,28,11,45,14.40
2009,09,28,11,46,14.40
2009,09,28,11,47,14.50
2009,09,28,11,48,14.40
2009,09,28,11,49,14.40
2009,09,28,11,50,14.40
2009,09,28,11,51,14.50
2009,09,28,11,52,14.50
2009,09,28,11,53,14.50
2009,09,28,11,54,14.50
2009,09,28,11,55,14.60
2009,09,28,11,56,14.60
2009,09,28,11,57,14.60
2009,09,28,11,58,14.70
2009,09,28,11,59,14.70
2009,09,28,12,00,14.70
2009,09,28,12,01,14.70
2009,09,28,12,02,14.70
2009,09,28,12,03,14.70
2009,09,28,12,04,14.70
2009,09,28,12,05,14.70
2009,09,28,12,06,14.80
2009,09,28,12,07,14.80
2009,09,28,12,08,14.80
2009,09,28,12,09,14.80
2009,09,28,12,10,14.90
2009,09,28,12,11,14.90
2009,09,28,12,12,15.00
2009,09,28,12,13,15.00
2009,09,28,12,14,15.00
2009,09,28,12,15,15.00
2009,09,28,12,16,15.00
2009,09,28,12,17,15.00
2009,09,28,12,18,15.00
2009,09,28,12,19,15.00
2009,09,28,12,20,15.00
2009,09,28,12,21,15.00
2009,09,28,12,22,15.10
2009,09,28,12,23,15.10
2009,09,28,12,24,15.00
2009,09,28,12,25,15.00
2009,09,28,12,26,15.10
2009,09,28,12,27,15.20
2009,09,28,12,28,15.20
2009,09,28,12,29,15.20
2009,09,28,12,30,15.20
2009,09,28,12,31,15.20
2009,09,28,12,32,15.20
2009,09,28,12,33,15.20
2009,09,28,12,34,15.20
2009,09,28,12,35,15.20
2009,09,28,12,36,15.20
2009,09,28,12,37,15.30
2009,09,28,12,38,15.40
2009,09,28,12,39,15.40
2009,09,28,12,40,15.50
2009,09,28,12,41,15.50
2009,09,28,12,42,15.60
2009,09,28,12,43,15.70
2009,09,28,12,44,15.80
2009,09,28,12,45,15.80
2009,09,28,12,46,15.90
2009,09,28,12,47,15.90
2009,09,28,12,48,15.90
2009,09,28,12,49,15.90
2009,09,28,12,50,15.80
2009,09,28,12,51,15.80
2009,09,28,12,52,15.80
2009,09,28,12,53,15.80
2009,09,28,12,54,15.90
2009,09,28,12,55,15.90
2009,09,28,12,56,15.90
2009,09,28,12,57,16.00
2009,09,28,12,58,16.00
2009,09,28,12,59,16.00
2009,09,28,13,00,16.00
2009,09,28,13,01,16.00
2009,09,28,13,02,16.00
2009,09,28,13,03,15.90
2009,09,28,13,04,15.90
2009,09,28,13,05,15.90
2009,09,28,13,06,15.90
2009,09,28,13,07,15.90
2009,09,28,13,08,15.90
2009,09,28,13,09,15.90
2009,09,28,13,10,15.90
2009,09,28,13,11,15.80
2009,09,28,13,12,15.70
2009,09,28,13,13,15.70
2009,09,28,13,14,15.60
2009,09,28,13,15,15.60
2009,09,28,13,16,15.60
2009,09,28,13,17,15.60
2009,09,28,13,18,15.50
2009,09,28,13,19,15.50
2009,09,28,13,20,15.40
2009,09,28,13,21,15.40
2009,09,28,13,22,15.30
2009,09,28,13,23,15.30
2009,09,28,13,24,15.30
2009,09,28,13,25,15.30
2009,09,28,13,26,15.30
2009,09,28,13,27,15.30
2009,09,28,13,28,15.30
2009,09,28,13,29,15.30
2009,09,28,13,30,15.30
2009,09,28,13,31,15.30
2009,09,28,13,32,15.30
2009,09,28,13,33,15.30
2009,09,28,13,34,15.30
2009,09,28,13,35,15.30
2009,09,28,13,36,15.30
2009,09,28,13,37,15.30
2009,09,28,13,38,15.40
2009,09,28,13,39,15.40
2009,09,28,13,40,15.50
2009,09,28,13,41,15.50
2009,09,28,13,42,15.50
2009,09,28,13,43,15.50
2009,09,28,13,44,15.50
2009,09,28,13,45,15.40
2009,09,28,13,46,15.30
2009,09,28,13,47,15.10
2009,09,28,13,48,15.00
2009,09,28,13,49,15.00
2009,09,28,13,50,15.00
2009,09,28,13,51,15.00
2009,09,28,13,52,15.00
2009,09,28,13,53,15.00
2009,09,28,13,54,15.00
2009,09,28,13,55,15.00
2009,09,28,13,56,15.00
2009,09,28,13,57,15.00
2009,09,28,13,58,15.00
2009,09,28,13,59,14.90
2009,09,28,14,00,14.70
2009,09,28,14,01,14.60
2009,09,28,14,02,14.50
2009,09,28,14,03,14.40
2009,09,28,14,04,14.20
2009,09,28,14,05,14.20
2009,09,28,14,06,14.10
2009,09,28,14,07,14.00
2009,09,28,14,08,13.80
2009,09,28,14,09,13.80
2009,09,28,14,10,13.70
2009,09,28,14,11,13.70
2009,09,28,14,12,13.60
2009,09,28,14,13,13.50
2009,09,28,14,14,13.30
2009,09,28,14,15,13.20
2009,09,28,14,16,13.10
2009,09,28,14,17,13.00
2009,09,28,14,18,12.90
2009,09,28,14,19,12.90
2009,09,28,14,20,12.90
2009,09,28,14,21,12.90
2009,09,28,14,22,12.90
2009,09,28,14,23,12.90
2009,09,28,14,24,12.90
2009,09,28,14,25,12.90
2009,09,28,14,26,12.90
2009,09,28,14,27,12.90
2009,09,28,14,28,12.90
2009,09,28,14,29,12.90
2009,09,28,14,30,12.90
2009,09,28,14,31,12.90
2009,09,28,14,32,12.90
2009,09,28,14,33,12.90
2009,09,28,14,34,12.90
2009,09,28,14,35,13.00
2009,09,28,14,36,13.00
2009,09,28,14,37,13.00
2009,09,28,14,38,13.00
2009,09,28,14,39,13.00
2009,09,28,14,40,12.90
2009,09,28,14,41,12.90
2009,09,28,14,42,12.80
2009,09,28,14,43,12.80
2009,09,28,14,44,12.80
2009,09,28,14,45,12.90
2009,09,28,14,46,12.90
2009,09,28,14,47,13.10
2009,09,28,14,48,13.30
2009,09,28,14,49,13.50
2009,09,28,14,50,13.70
2009,09,28,14,51,13.90
2009,09,28,14,52,14.00
2009,09,28,14,53,14.10
2009,09,28,14,54,14.00
2009,09,28,14,55,14.00
2009,09,28,14,56,14.00
2009,09,28,14,57,13.90
2009,09,28,14,58,13.80
2009,09,28,14,59,13.70
2009,09,28,15,00,13.60
2009,09,28,15,01,13.40
2009,09,28,15,02,13.20
2009,09,28,15,03,13.20
2009,09,28,15,04,13.10
2009,09,28,15,05,12.90
2009,09,28,15,06,12.90
2009,09,28,15,07,12.80
2009,09,28,15,08,12.80
2009,09,28,15,09,12.90
2009,09,28,15,10,12.90
2009,09,28,15,11,12.90
2009,09,28,15,12,13.00
2009,09,28,15,13,13.00
2009,09,28,15,14,13.10
2009,09,28,15,15,13.00
2009,09,28,15,16,13.00
2009,09,28,15,17,13.00
2009,09,28,15,18,13.00
2009,09,28,15,19,13.00
2009,09,28,15,20,13.00
2009,09,28,15,21,12.90
2009,09,28,15,22,12.90
2009,09,28,15,23,12.80
2009,09,28,15,24,12.80
2009,09,28,15,25,12.80
2009,09,28,15,26,12.70
2009,09,28,15,27,12.70
2009,09,28,15,28,12.70
2009,09,28,15,29,12.70
2009,09,28,15,30,12.60
2009,09,28,15,31,12.60
2009,09,28,15,32,12.60
2009,09,28,15,33,12.50
2009,09,28,15,34,12.50
2009,09,28,15,35,12.50
2009,09,28,15,36,12.40
2009,09,28,15,37,12.40
2009,09,28,15,38,12.40
2009,09,28,15,39,12.40
2009,09,28,15,40,12.30
2009,09,28,15,41,12.30
2009,09,28,15,42,12.30
2009,09,28,15,43,12.30
2009,09,28,15,44,12.30
2009,09,28,15,45,12.30
2009,09,28,15,46,12.20
2009,09,28,15,47,12.20
2009,09,28,15,48,12.10
2009,09,28,15,49,12.00
2009,09,28,15,50,12.00
2009,09,28,15,51,11.90
2009,09,28,15,52,11.90
2009,09,28,15,53,11.90
2009,09,28,15,54,11.80
2009,09,28,15,55,11.70
2009,09,28,15,56,11.70
2009,09,28,15,57,11.60
2009,09,28,15,58,11.60
2009,09,28,15,59,11.60
2009,09,28,16,00,11.50
2009,09,28,16,01,11.50
2009,09,28,16,02,11.50
2009,09,28,16,03,11.40
2009,09,28,16,04,11.40
2009,09,28,16,05,11.40
2009,09,28,16,06,11.30
2009,09,28,16,07,11.30
2009,09,28,16,08,11.30
2009,09,28,16,09,11.30
2009,09,28,16,10,11.30
2009,09,28,16,11,11.30
2009,09,28,16,12,11.30
2009,09,28,16,13,11.20
2009,09,28,16,14,11.20
2009,09,28,16,15,11.20
2009,09,28,16,16,11.20
2009,09,28,16,17,11.20
2009,09,28,16,18,11.20
2009,09,28,16,19,11.10
2009,09,28,16,20,11.10
2009,09,28,16,21,11.10
2009,09,28,16,22,11.10
2009,09,28,16,23,11.00
2009,09,28,16,24,11.00
2009,09,28,16,25,11.00
2009,09,28,16,26,10.90
2009,09,28,16,27,10.90
2009,09,28,16,28,10.90
2009,09,28,16,29,10.90
2009,09,28,16,30,10.80
2009,09,28,16,31,10.80
2009,09,28,16,32,10.80
2009,09,28,16,33,10.80
2009,09,28,16,34,10.80
2009,09,28,16,35,10.80
2009,09,28,16,36,10.80
2009,09,28,16,37,10.80
2009,09,28,16,38,10.80
2009,09,28,16,39,10.80
2009,09,28,16,40,10.80
2009,09,28,16,41,10.80
2009,09,28,16,42,10.80
2009,09,28,16,43,10.80
2009,09,28,16,44,10.80
2009,09,28,16,45,10.80
2009,09,28,16,46,10.80
2009,09,28,16,47,10.80
2009,09,28,16,48,10.80
2009,09,28,16,49,10.80
2009,09,28,16,50,10.70
2009,09,28,16,51,10.70
2009,09,28,16,52,10.70
2009,09,28,16,53,10.70
2009,09,28,16,54,10.70
2009,09,28,16,55,10.70
2009,09,28,16,56,10.70
2009,09,28,16,57,10.70
2009,09,28,16,58,10.70
2009,09,28,16,59,10.60
2009,09,28,17,00,10.60
2009,09,28,17,01,10.60
2009,09,28,17,02,10.60
2009,09,28,17,03,10.60
2009,09,28,17,04,10.60
2009,09,28,17,05,10.60
2009,09,28,17,06,10.50
2009,09,28,17,07,10.50
2009,09,28,17,08,10.50
2009,09,28,17,09,10.50
2009,09,28,17,10,10.40
2009,09,28,17,11,10.40
2009,09,28,17,12,10.40
2009,09,28,17,13,10.40
2009,09,28,17,14,10.40
2009,09,28,17,15,10.40
2009,09,28,17,16,10.40
2009,09,28,17,17,10.40
2009,09,28,17,18,10.40
2009,09,28,17,19,10.40
2009,09,28,17,20,10.40
2009,09,28,17,21,10.40
2009,09,28,17,22,10.40
2009,09,28,17,23,10.40
2009,09,28,17,24,10.40
2009,09,28,17,25,10.30
2009,09,28,17,26,10.30
2009,09,28,17,27,10.30
2009,09,28,17,28,10.30
2009,09,28,17,29,10.30
2009,09,28,17,30,10.30
2009,09,28,17,31,10.30
2009,09,28,17,32,10.30
2009,09,28,17,33,10.30
2009,09,28,17,34,10.30
2009,09,28,17,35,10.30
2009,09,28,17,36,10.30